Theta_e
327 325 323 319 317 316 316 316 313 309 308 310 312 314 315 315 316 317 317 317 316 315 314 314 313 313 315 315 316 316 316 316 315 316 316 315 314 314 314 313 313 313 313 313 312 313 313 313 312 312 310 310 312 315 316 318 320 321 322 324 324 323 323 322 323 325 327 328 328 328 328 328 329 330 332 332 331 331 332 333 334 333 333 335 336
327 323 320 317 315 315 316 315 313 309 308 310 311 311 313 315 316 317 317 317 316 315 315 315 314 313 313 313 313 314 315 315 315 316 316 315 314 313 313 313 312 313 313 313 313 313 313 313 312 312 311 310 312 313 314 315 317 319 319 321 323 323 322 323 323 324 325 327 328 328 327 327 327 329 330 331 331 330 331 331 332 333 333 333 335
326 319 315 313 314 315 315 315 315 311 310 311 313 313 315 315 315 316 316 316 316 315 316 316 316 315 314 313 313 313 314 315 315 315 316 315 314 313 313 312 312 312 313 313 313 313 313 313 313 312 311 310 310 311 312 313 315 316 316 318 321 322 323 323 323 323 324 326 327 327 326 326 326 326 328 329 330 330 330 330 330 332 332 331 333
325 321 315 312 313 315 316 316 316 313 313 315 316 315 315 316 316 316 316 316 316 316 316 317 317 317 317 316 315 313 313 314 315 315 316 315 313 313 313 313 312 312 312 312 313 313 313 314 314 313 312 311 310 308 309 311 313 314 314 316 318 320 322 322 322 323 323 325 326 326 326 325 325 325 325 327 328 328 329 329 329 330 331 331 331
328 324 319 315 313 314 317 317 316 315 316 317 316 316 316 316 316 316 316 316 317 317 317 317 317 318 318 317 317 317 315 314 314 315 315 314 313 313 313 313 313 313 312 313 312 312 313 314 314 313 313 313 311 309 308 308 310 312 314 314 314 316 320 321 322 323 323 323 325 325 325 324 324 323 323 323 324 325 326 327 328 328 329 331 331
327 324 320 317 313 313 317 317 317 317 317 317 317 316 317 317 317 317 316 317 317 317 317 317 317 318 318 318 318 319 318 316 314 314 314 314 314 314 314 314 314 312 311 312 311 311 312 313 314 314 313 310 307 306 306 305 308 313 314 314 313 312 316 319 321 322 323 323 323 324 323 323 322 322 322 321 321 321 322 323 325 327 327 329 330
325 322 319 315 311 312 316 317 317 318 317 317 317 317 317 317 318 318 317 317 317 318 318 317 318 319 319 319 319 319 320 318 316 314 314 314 314 314 314 314 314 312 309 309 310 311 313 313 312 312 309 306 303 302 302 302 307 314 315 314 314 313 313 316 318 320 322 323 323 322 322 322 322 321 321 320 319 319 318 318 320 323 325 327 328
323 320 317 314 312 313 316 317 317 317 317 317 317 317 317 317 318 318 318 318 319 319 319 318 318 319 319 319 319 319 320 319 318 315 314 314 315 315 314 314 315 314 311 310 310 311 311 310 310 309 307 305 302 301 303 304 307 313 316 316 316 314 313 312 313 315 318 320 322 322 322 321 321 321 320 320 319 317 317 316 316 318 320 324 327
322 319 318 317 315 315 316 317 317 317 316 317 316 316 316 316 317 317 317 318 318 319 319 319 319 320 319 319 319 319 320 320 319 316 315 314 315 316 315 315 315 315 314 313 312 312 311 310 309 309 308 305 302 303 308 309 309 312 315 315 316 316 314 312 311 311 312 315 318 320 320 320 320 319 317 317 316 314 313 313 313 314 316 321 325
322 319 318 319 318 317 317 316 317 317 316 316 316 316 317 317 317 316 316 316 316 317 318 318 319 319 319 318 318 319 319 320 319 318 315 315 316 316 316 315 315 315 315 315 313 313 313 312 310 310 308 305 302 305 309 310 310 311 313 315 316 316 314 312 311 310 309 310 312 314 317 317 316 313 310 312 314 313 314 314 312 312 312 317 323
322 319 319 319 318 318 318 316 315 317 317 316 316 317 317 318 318 317 318 317 316 317 317 317 318 318 318 318 318 319 320 320 320 319 316 315 315 316 316 316 315 315 315 315 314 313 313 312 311 310 308 304 301 304 308 309 310 311 312 315 317 315 314 313 311 308 307 306 307 308 311 310 309 309 311 315 317 318 319 319 317 315 314 317 322
322 320 319 319 318 318 318 315 315 316 317 317 317 317 318 319 319 318 319 319 318 318 317 317 318 318 318 319 319 319 320 320 320 319 318 316 315 316 317 316 316 316 316 315 314 314 313 313 312 310 308 304 300 303 306 308 311 312 313 315 316 314 313 313 311 308 306 306 306 306 308 309 311 313 316 318 319 319 319 320 320 319 317 318 320
322 320 319 319 319 318 318 317 315 316 318 317 317 317 318 318 319 319 320 320 319 319 319 318 319 319 319 319 319 319 319 320 320 319 319 318 315 315 316 317 316 316 316 316 315 314 314 313 313 310 308 305 301 301 305 308 310 313 314 314 314 313 312 311 311 309 308 308 309 309 311 312 314 315 317 318 319 319 319 319 321 322 320 320 321
321 321 319 320 319 318 318 318 315 315 317 317 317 317 318 319 319 320 321 321 320 320 320 320 320 320 320 319 319 319 319 319 319 319 319 319 317 315 315 317 317 316 317 317 316 315 314 314 313 310 308 306 302 299 302 307 310 312 313 313 313 312 311 310 310 311 311 311 311 312 313 313 313 314 316 318 318 317 317 319 321 323 323 323 323
322 321 320 320 319 318 318 318 316 315 317 317 317 318 319 319 320 320 321 321 319 319 319 320 321 320 320 320 320 320 319 319 320 320 319 319 318 316 314 316 317 316 316 317 316 315 315 314 313 310 308 306 303 298 299 304 308 310 311 312 312 311 310 310 311 312 312 312 312 313 313 313 313 314 315 317 317 315 316 319 322 323 323 323 323
321 320 320 320 319 318 318 318 317 316 317 317 318 319 319 320 320 320 320 318 317 318 319 320 320 320 321 320 320 320 320 320 319 319 319 319 318 317 315 315 316 316 315 316 316 316 315 315 313 311 308 306 302 298 298 301 304 308 310 311 311 311 310 310 311 312 312 312 313 313 313 313 313 314 315 316 316 314 315 319 321 323 323 323 322
321 321 320 319 318 318 318 319 319 318 317 318 319 320 320 320 320 320 318 316 316 318 320 320 320 320 320 320 320 320 320 320 320 319 320 319 318 317 315 315 315 314 314 315 316 316 315 315 314 311 308 306 301 299 299 300 302 306 309 309 310 310 309 309 311 312 312 312 312 312 313 313 313 313 314 316 315 313 314 317 321 322 323 324 323
321 321 320 318 318 319 319 319 320 319 318 318 319 320 321 320 320 319 317 316 317 318 320 320 320 320 320 320 320 320 320 320 319 319 320 320 319 317 316 315 315 314 313 314 315 316 315 315 314 311 308 306 303 300 300 302 304 306 308 309 310 310 310 310 311 311 311 311 311 311 312 313 313 313 314 314 314 313 313 316 320 321 322 322 322
321 320 319 319 319 319 319 320 320 320 320 319 318 320 320 320 321 319 317 316 316 317 318 319 320 320 320 320 320 320 320 319 320 320 320 320 320 318 315 315 315 314 314 313 314 315 315 315 315 311 309 307 305 304 304 305 306 307 307 308 308 308 310 311 311 311 311 311 311 310 310 311 312 312 312 312 313 313 312 315 319 320 320 321 321
320 319 319 321 320 319 319 320 320 320 321 319 319 320 320 321 320 320 319 318 318 318 319 319 319 320 320 320 320 320 320 320 320 320 320 321 321 317 313 313 314 314 314 313 313 314 314 315 315 311 309 309 308 307 308 308 308 308 309 308 307 306 307 310 311 311 310 310 311 310 309 310 310 310 310 309 310 311 311 312 317 319 320 320 320
320 320 321 322 321 320 319 319 319 321 320 319 320 320 321 321 320 319 319 319 319 319 319 319 320 319 319 320 320 320 321 321 320 320 321 321 319 315 312 313 313 313 313 313 313 313 313 314 315 312 309 309 309 308 308 308 309 309 309 309 308 306 306 307 310 310 310 310 311 310 310 309 308 308 308 306 307 309 310 312 316 318 319 319 319
320 320 321 322 321 321 321 319 320 320 320 320 321 321 321 320 320 319 319 320 319 319 319 319 320 319 318 319 320 319 320 320 319 319 320 319 316 313 312 312 312 312 312 312 312 313 313 314 315 312 310 309 310 309 309 308 309 309 309 309 309 308 306 306 308 309 310 310 310 309 309 309 308 309 308 307 307 308 309 313 315 317 318 318 318
321 320 319 321 322 322 322 321 320 319 320 320 320 320 320 319 319 319 320 320 319 319 320 321 321 320 318 319 319 319 318 317 316 315 315 314 313 312 312 312 312 312 312 312 312 312 313 314 315 313 311 310 311 311 311 309 309 309 309 309 310 309 308 307 308 308 308 307 306 308 309 309 310 310 309 308 308 308 309 313 315 315 316 317 317
321 319 318 320 321 322 322 321 319 318 320 320 319 318 319 319 319 319 319 319 320 320 320 321 321 320 319 320 319 318 317 317 315 313 312 312 313 313 313 313 313 313 312 312 312 312 312 313 314 314 312 311 311 311 311 312 311 310 309 309 309 309 309 309 309 309 307 305 305 308 310 309 310 311 309 308 309 309 309 313 314 314 315 316 316
321 319 318 319 320 320 320 319 319 319 319 320 319 319 319 320 320 320 320 320 321 321 321 322 322 321 320 320 320 319 318 318 317 315 313 313 313 313 313 313 313 313 313 312 312 312 311 311 312 314 313 311 311 311 311 312 313 312 311 310 309 309 309 309 309 309 308 306 305 307 310 309 309 310 309 309 310 309 309 312 314 313 314 315 315
320 319 319 319 320 319 319 319 318 318 319 320 320 320 320 320 320 320 320 320 321 321 322 322 322 320 319 320 320 320 318 318 318 317 315 314 314 314 314 314 314 314 314 313 312 312 312 311 311 313 314 313 312 312 311 312 313 312 311 310 309 309 309 310 310 309 309 307 305 306 308 309 309 308 308 309 310 310 310 311 312 312 313 314 315
320 319 319 319 319 320 320 320 318 317 318 320 320 320 320 320 319 320 321 321 321 321 321 322 321 319 318 319 320 320 319 319 318 318 317 316 315 315 314 315 315 314 314 314 313 313 312 311 311 313 314 314 313 313 313 312 312 311 310 310 310 309 309 310 310 309 308 308 307 306 306 308 307 306 307 309 309 309 309 310 311 312 312 313 315
319 318 318 320 320 320 319 319 318 318 318 319 320 320 321 321 321 321 322 321 322 322 321 321 320 317 317 318 320 320 319 319 319 318 317 317 316 315 315 315 315 314 314 314 314 314 313 313 312 313 314 315 314 314 313 312 311 311 310 310 310 310 310 309 310 309 309 309 308 306 306 307 306 305 307 309 308 308 309 310 310 312 312 312 314
318 316 317 319 319 318 318 318 319 320 320 321 321 322 322 322 322 322 322 321 320 319 319 318 316 314 314 316 318 319 319 319 319 318 317 317 316 315 315 315 315 315 314 314 314 314 314 314 313 313 313 314 314 314 314 313 312 311 311 311 310 310 310 310 309 309 309 309 308 306 307 308 307 305 307 309 308 307 309 309 309 310 312 312 312
315 315 317 319 319 319 319 319 320 321 321 321 322 322 323 323 323 323 322 321 319 319 318 315 313 313 313 313 315 316 317 317 317 316 316 315 315 315 315 315 315 315 314 314 314 314 314 314 314 313 313 313 314 315 314 314 313 312 311 311 311 311 310 310 310 310 309 309 308 307 307 308 308 306 306 308 308 309 310 309 308 307 309 311 311
314 317 318 319 320 321 321 321 321 322 322 322 322 322 322 323 323 323 323 322 322 321 320 317 315 314 315 314 315 315 315 315 314 314 314 314 314 315 316 315 315 314 314 314 314 313 313 314 314 314 314 313 314 315 315 315 314 313 312 312 311 311 311 310 310 310 309 308 307 307 308 308 307 307 307 307 308 309 309 309 308 305 306 310 310
316 319 320 320 321 322 322 322 323 323 323 323 322 323 323 323 323 323 323 322 322 322 321 319 319 319 318 318 317 317 316 316 315 315 314 314 315 316 317 316 315 314 314 314 314 314 314 313 313 314 314 314 315 315 315 314 314 313 313 313 312 311 311 311 310 310 310 309 307 307 308 308 306 307 308 308 308 309 309 309 307 304 305 310 311
318 320 320 321 322 322 323 324 324 323 323 323 323 323 323 323 323 323 322 322 322 322 322 321 321 321 321 320 320 319 319 318 317 317 317 317 317 318 318 318 316 315 314 314 314 314 314 314 313 314 314 315 315 315 315 315 315 314 314 313 312 312 311 311 311 311 310 310 309 307 308 308 306 306 308 308 308 308 308 308 306 304 306 310 310
320 320 320 320 321 322 323 324 323 323 323 323 323 323 323 323 323 323 322 321 321 321 322 321 321 322 322 322 322 322 321 320 319 319 319 319 319 319 319 318 317 316 315 315 314 314 315 315 315 314 314 315 316 315 315 315 315 315 315 314 313 312 312 312 312 311 311 311 311 309 308 307 306 306 307 308 308 308 307 307 307 306 307 309 309
322 322 320 320 321 322 323 324 324 323 323 323 323 323 322 323 322 322 322 322 322 322 322 321 321 322 323 323 323 322 321 321 320 319 319 319 319 319 319 319 318 318 317 316 315 315 316 316 316 315 314 315 316 316 316 316 316 315 315 314 313 313 312 312 312 312 311 311 311 310 309 307 306 306 306 308 309 308 307 308 307 306 307 308 308
323 323 322 321 321 322 323 324 324 324 323 323 323 323 322 322 323 323 324 323 323 324 323 322 322 322 323 323 323 323 322 322 321 320 320 320 320 320 320 320 319 319 318 316 316 316 316 317 317 316 315 315 315 316 317 316 316 316 316 315 314 314 313 313 312 312 312 312 312 311 310 308 307 306 305 307 308 308 308 308 308 306 306 307 308
323 322 321 320 319 320 322 322 323 323 323 322 322 322 322 322 323 324 324 324 324 324 324 323 322 322 323 323 323 323 323 323 322 322 321 321 321 320 320 320 320 319 318 317 316 317 317 317 317 317 316 315 315 316 317 317 317 317 316 316 316 315 314 313 313 312 312 312 312 312 310 308 307 306 305 306 308 308 307 308 308 307 305 306 307
323 323 322 321 320 320 320 320 320 321 321 322 322 321 321 321 322 322 323 324 324 324 324 324 323 323 324 324 323 323 324 323 323 323 322 321 321 321 320 320 320 319 318 317 317 317 317 317 317 317 317 317 316 316 316 317 317 317 317 317 316 316 315 314 313 313 313 313 312 312 311 309 307 307 306 306 307 307 307 307 307 306 306 306 306
323 323 323 323 323 322 322 322 322 322 323 323 322 322 322 322 322 323 323 323 323 323 323 324 323 323 324 324 324 324 324 323 323 323 322 321 321 320 320 320 319 319 318 317 317 317 318 318 317 317 317 318 318 317 317 317 317 317 317 317 317 316 315 315 314 313 313 313 313 313 312 310 308 307 307 307 307 307 306 307 307 306 306 307 306
323 323 323 323 324 323 324 324 324 324 324 324 323 323 324 324 324 324 323 323 323 323 323 323 324 323 324 324 324 324 324 324 324 323 322 322 321 320 320 320 319 319 319 317 317 318 318 318 318 317 317 318 318 318 319 318 318 318 318 317 317 317 316 316 315 314 314 314 313 313 312 311 309 307 307 307 307 306 306 306 306 306 306 307 306
323 323 324 324 324 323 324 324 324 324 324 324 323 324 324 324 324 324 324 324 324 323 323 323 324 324 324 324 324 324 324 324 323 323 322 322 321 321 321 320 319 319 319 318 318 318 319 319 319 319 318 318 318 318 319 319 318 318 318 317 317 317 317 317 316 315 314 314 313 312 312 311 310 308 307 307 307 306 306 306 306 306 306 307 306
324 324 324 324 324 324 324 324 324 324 324 324 323 324 324 323 324 324 324 324 324 324 324 324 324 324 324 324 324 324 324 323 323 323 323 322 322 321 321 321 320 319 318 318 318 319 319 319 319 319 318 318 318 318 319 319 319 319 318 318 318 317 317 317 317 316 315 314 314 312 312 311 311 309 308 308 307 306 306 306 305 306 306 306 306
325 325 324 324 324 324 324 324 324 324 323 324 324 323 323 324 323 323 324 323 323 323 324 324 324 324 324 324 324 324 324 324 323 323 323 322 322 322 321 321 320 319 318 318 319 319 319 320 319 319 318 318 317 318 318 318 319 319 319 318 318 318 318 318 318 317 316 315 314 313 312 311 311 310 309 308 308 307 307 306 305 305 305 305 305
325 325 325 324 324 324 324 324 324 324 323 324 324 324 324 324 324 324 323 323 323 323 323 323 324 324 324 324 324 323 323 323 323 323 322 322 321 321 320 320 319 318 318 318 319 319 319 319 319 319 319 318 318 318 318 318 319 319 319 319 318 318 318 318 318 318 317 316 315 314 313 312 311 311 310 309 308 307 307 306 306 305 305 305 305
325 325 324 324 324 323 323 323 323 324 324 324 324 324 324 324 324 324 324 323 323 323 323 323 324 324 324 324 324 323 323 323 323 323 322 322 321 321 320 319 319 319 318 318 318 319 319 319 319 319 319 319 319 318 318 318 318 318 319 318 318 318 318 318 317 317 318 317 316 315 313 313 312 311 310 309 307 306 306 306 306 305 305 306 305
325 324 324 323 323 324 323 323 323 323 323 323 323 323 323 324 324 324 324 324 324 324 323 323 324 324 324 324 324 323 323 323 322 322 322 322 321 321 319 319 319 319 319 318 318 318 318 319 319 319 319 319 319 319 319 318 319 319 319 319 318 318 318 318 317 317 318 317 317 315 314 313 312 312 311 309 308 306 305 305 305 305 305 306 306
325 324 324 323 323 323 323 322 323 323 323 324 323 324 324 324 324 324 324 324 324 324 324 324 324 324 324 324 324 323 323 322 322 321 321 321 321 321 320 319 319 318 319 318 318 318 318 319 319 319 319 319 318 319 319 319 319 319 319 319 319 319 319 318 318 318 318 317 317 316 314 313 313 312 311 310 308 307 306 305 305 305 305 306 306
324 324 324 323 323 323 323 323 323 323 324 324 324 324 324 324 325 325 325 325 325 325 324 324 324 325 325 325 324 323 323 322 321 321 321 321 321 321 320 319 319 318 319 319 318 318 318 318 318 318 318 318 318 318 319 319 319 319 319 319 319 319 319 318 318 318 317 317 318 317 315 314 313 312 311 309 308 307 307 305 305 305 305 306 306
324 324 324 324 325 325 325 325 325 324 323 324 324 324 325 325 325 326 326 326 326 326 326 326 326 326 325 325 325 324 323 322 322 321 321 321 321 321 321 320 319 319 318 319 318 318 318 318 318 318 318 318 318 318 318 318 318 319 319 319 319 319 319 319 319 318 318 318 317 317 316 315 313 313 312 310 309 308 308 307 305 305 305 306 306
325 326 326 326 326 326 326 326 325 325 325 324 324 325 325 325 326 326 327 327 326 326 326 326 327 326 326 326 326 325 324 323 323 322 322 322 321 321 320 320 320 319 319 318 318 318 318 318 318 318 318 318 318 318 318 319 319 318 318 319 319 319 319 319 319 318 318 318 318 318 317 316 314 313 312 311 309 308 308 307 306 305 305 306 306
326 326 325 325 325 325 325 325 325 324 324 324 325 325 326 326 327 327 327 327 328 327 327 327 327 326 326 326 327 326 325 325 324 323 322 322 322 321 321 320 320 319 319 318 318 319 318 318 319 318 318 318 319 319 318 319 319 318 319 319 319 319 319 319 319 319 319 318 318 318 318 317 315 313 312 311 310 309 309 308 307 306 306 305 305
Wind_Speed
8 7 7 7 6 5 4 2 2 3 6 10 12 11 11 13 16 15 12 11 12 15 20 22 18 13 10 8 8 9 9 9 9 10 12 13 13 12 11 13 15 15 15 16 16 18 20 21 23 22 17 11 9 8 8 9 9 8 8 7 6 5 4 3 4 5 4 4 6 7 7 6 5 5 6 7 8 8 8 9 10 11 12 12 13
6 6 6 6 6 6 5 4 4 6 9 11 11 12 13 15 15 13 11 10 10 13 18 20 20 19 16 12 9 8 9 9 8 9 11 12 12 12 11 11 12 13 13 13 15 17 19 21 23 22 17 12 10 10 10 10 9 10 10 8 6 5 4 4 5 6 5 4 5 6 5 4 4 5 5 6 7 6 6 7 8 9 10 10 11
4 5 7 7 7 8 7 6 6 9 13 16 16 16 18 18 16 14 12 10 9 11 14 16 17 19 20 19 16 12 10 9 8 8 9 10 10 10 11 11 11 13 13 12 13 17 18 19 21 22 20 15 12 11 11 10 9 9 11 10 8 6 5 5 6 7 7 5 5 6 5 4 5 6 5 5 6 7 7 7 7 7 8 8 9
3 4 6 7 8 10 9 8 9 11 16 19 19 19 19 17 15 13 10 8 8 9 11 13 14 15 17 19 20 18 14 11 8 6 7 9 9 9 11 12 13 14 13 12 13 15 17 18 18 19 20 19 17 14 12 11 9 8 10 10 9 8 7 7 7 7 6 5 5 6 5 4 5 6 6 5 5 8 9 8 7 6 7 7 7
2 4 6 5 6 11 12 10 11 13 15 16 16 16 16 12 9 9 9 7 6 6 7 10 12 13 13 14 17 20 19 15 11 8 7 8 9 10 12 15 16 16 13 12 14 14 13 14 15 17 19 20 20 17 15 12 9 9 9 10 11 11 8 7 7 6 4 4 5 4 3 3 5 7 9 8 7 7 8 9 9 7 7 7 6
4 5 4 3 5 14 17 13 11 12 12 11 12 12 11 8 6 6 7 7 6 3 4 6 9 9 10 12 14 18 20 18 15 10 8 8 10 12 14 15 17 17 14 12 13 13 11 11 13 16 19 21 21 20 17 13 9 10 11 11 12 13 10 8 7 6 4 3 4 3 2 3 5 7 9 11 12 11 9 10 9 8 7 7 7
5 5 4 5 9 16 17 14 11 11 9 8 8 9 9 7 6 6 6 7 6 3 1 3 5 6 8 10 14 16 18 19 18 13 9 9 10 12 14 15 17 19 17 14 12 11 11 12 14 16 19 21 22 19 16 12 8 9 11 11 12 13 12 10 9 8 6 5 4 4 5 6 6 8 9 10 12 12 12 12 10 9 8 7 7
8 6 5 8 13 16 15 14 12 11 10 9 8 9 9 7 5 5 6 6 5 3 0 2 3 4 6 9 12 14 15 17 18 16 12 10 10 11 13 14 16 19 19 18 15 14 14 15 16 18 21 22 20 15 12 8 5 6 9 11 11 13 12 11 11 10 8 7 7 6 7 8 9 9 9 9 8 9 10 12 12 12 11 8 7
10 7 6 8 10 11 12 13 13 11 11 10 9 10 10 9 6 4 4 5 4 3 1 1 3 4 6 8 10 12 13 15 16 16 14 11 9 10 11 13 14 17 19 19 18 19 19 19 19 21 24 23 17 12 11 9 3 2 7 9 9 10 11 12 13 13 11 10 9 9 9 10 11 11 11 11 11 11 12 13 13 14 13 9 6
10 8 7 7 8 9 9 9 12 11 9 9 9 9 10 10 8 5 3 1 3 4 3 2 2 4 5 8 9 9 11 12 14 16 15 13 10 8 10 12 12 14 18 19 19 20 21 21 22 24 25 22 14 10 11 8 3 3 6 8 9 9 10 13 14 15 13 11 10 10 11 12 12 12 12 10 10 11 11 12 12 12 12 8 4
10 8 8 8 10 10 6 6 11 12 9 9 9 9 9 8 6 5 4 3 0 3 4 2 1 2 3 6 7 8 8 10 12 14 14 14 11 8 8 11 11 12 15 18 19 20 21 22 23 26 27 22 13 9 8 7 6 6 6 6 10 10 11 14 15 14 12 11 10 9 9 10 10 10 10 9 9 10 11 13 12 11 9 6 2
9 8 9 10 11 10 5 5 11 14 11 9 8 8 9 7 4 2 1 3 1 1 2 1 1 1 1 3 6 6 7 9 12 13 13 14 14 9 6 9 11 11 12 16 18 20 21 22 23 26 27 22 14 9 6 5 7 8 6 7 10 9 9 11 12 11 10 9 9 8 8 9 10 10 10 11 11 12 13 14 12 10 8 5 3
10 9 10 12 12 10 6 5 9 14 13 10 9 9 9 7 4 3 3 2 2 2 2 3 4 5 5 3 5 6 8 9 10 11 11 13 14 12 7 8 10 10 10 13 16 18 20 22 23 25 26 21 15 9 4 3 5 7 7 8 8 8 8 8 8 9 9 8 8 8 9 10 11 11 12 12 12 13 15 16 15 11 7 4 3
12 11 12 13 12 9 6 4 6 11 12 10 11 11 9 6 4 4 4 4 4 2 3 4 6 7 8 7 7 7 9 9 9 10 11 12 14 14 10 8 9 10 10 12 14 16 18 21 22 25 25 21 16 11 4 1 1 3 5 4 4 6 7 7 7 9 9 8 7 8 8 9 9 10 10 10 12 14 17 17 16 12 8 7 5
13 12 12 13 11 9 7 6 5 8 9 10 12 12 9 6 5 5 5 6 7 4 2 2 3 5 6 7 9 9 9 9 9 9 11 12 13 14 12 9 9 10 10 11 12 14 16 19 21 24 24 21 15 11 6 1 2 1 1 1 3 6 6 6 7 10 10 8 8 8 7 6 6 7 7 8 9 13 15 15 14 10 8 10 7
15 15 13 12 11 10 9 8 6 7 8 10 11 9 7 7 6 6 8 9 7 5 3 2 2 4 5 6 8 9 9 8 9 10 11 12 13 13 12 11 9 10 11 10 11 12 14 17 19 22 23 19 14 10 8 4 1 2 2 3 4 5 5 4 5 7 8 8 8 9 8 6 5 6 7 7 8 12 13 10 10 8 6 7 7
17 16 13 13 13 12 11 10 8 7 8 9 9 7 7 6 5 5 6 7 5 4 4 3 4 5 5 7 9 9 8 8 8 9 10 12 13 12 12 12 10 10 11 10 10 11 13 15 17 20 21 18 13 10 8 7 5 3 2 3 3 3 3 3 4 6 7 8 9 11 10 8 7 7 7 7 9 12 13 10 10 10 9 8 8
16 15 13 13 13 13 13 12 10 8 8 8 8 7 6 5 3 2 2 4 5 5 5 5 5 7 8 9 9 8 7 6 7 8 9 11 12 11 11 11 11 10 10 10 10 11 12 14 16 17 18 17 14 10 8 8 8 8 7 6 4 3 3 3 5 6 7 9 10 10 9 8 7 7 7 7 8 12 14 12 10 10 11 11 9
14 13 12 12 12 12 14 14 13 10 9 9 9 8 7 5 2 2 2 2 4 5 6 5 7 9 10 10 8 7 6 6 6 7 9 11 11 11 10 11 10 10 10 11 11 11 11 13 14 15 15 15 14 11 11 12 12 11 11 11 9 6 4 6 9 8 7 9 10 10 10 8 7 7 7 7 8 10 12 11 8 8 11 12 11
12 12 13 13 12 12 14 15 14 11 10 10 9 8 7 6 4 3 2 2 3 4 4 6 9 11 10 10 9 7 7 7 7 8 9 10 11 10 9 9 9 9 10 11 12 11 11 12 12 11 11 12 12 11 12 12 12 12 13 14 15 11 6 6 9 10 8 8 9 10 10 9 8 8 8 9 9 9 9 9 7 6 8 10 10
11 12 14 14 12 12 14 14 14 12 10 10 9 8 7 5 5 6 5 4 4 4 6 9 12 12 11 10 9 8 7 7 8 8 9 9 9 8 8 8 8 8 9 11 12 12 11 11 10 9 8 8 9 9 9 9 9 10 10 11 13 13 9 6 6 8 8 7 7 9 9 9 8 8 8 9 8 6 6 6 4 4 5 6 7
11 11 13 15 14 12 13 14 14 13 12 11 10 10 9 7 6 7 6 6 6 7 8 11 13 13 11 8 8 7 6 6 7 7 7 6 6 5 6 6 7 7 8 10 11 11 10 9 8 7 5 6 7 7 7 7 7 6 7 8 9 10 10 8 7 8 8 8 9 10 9 9 9 8 8 9 11 8 4 4 2 2 3 4 4
11 10 12 16 15 13 13 15 15 14 13 11 11 12 12 9 8 7 6 7 7 8 9 11 13 13 10 6 5 4 2 3 4 4 3 2 3 4 5 6 7 8 9 10 11 10 9 7 6 5 4 4 6 7 6 6 5 4 6 8 7 6 8 8 8 10 11 10 10 9 9 9 9 10 10 10 13 13 6 3 2 2 3 3 3
12 10 11 14 15 13 13 14 15 15 14 12 11 12 12 9 6 5 6 7 8 9 10 12 14 13 8 3 3 2 1 1 2 2 2 2 2 4 5 6 8 9 9 10 11 10 9 7 5 4 3 3 4 6 6 6 6 5 5 7 6 5 7 7 7 10 14 12 8 7 9 9 9 11 12 11 13 14 7 2 4 4 6 6 4
14 11 9 12 13 12 12 13 13 14 13 12 12 12 10 7 5 5 6 7 9 10 11 12 14 13 7 4 2 2 2 1 1 1 2 3 3 5 6 7 9 10 10 11 11 11 11 8 6 4 3 3 3 4 5 6 7 6 5 5 4 4 5 5 6 10 14 13 9 6 7 9 8 9 11 10 12 13 6 2 5 5 4 6 5
14 12 11 12 12 12 11 11 11 13 14 13 12 11 8 7 6 6 7 8 10 11 12 12 11 11 8 6 4 4 4 4 3 4 4 4 5 7 8 8 10 11 12 12 12 11 11 10 7 5 3 3 4 4 5 6 6 6 5 5 3 3 5 5 6 9 11 11 11 8 6 7 8 7 7 8 11 12 7 3 4 4 3 2 1
13 13 13 12 12 12 12 10 11 13 14 12 10 9 7 7 7 7 8 9 11 12 13 11 9 9 8 7 7 6 7 7 6 7 7 7 8 9 10 10 11 12 12 13 12 12 11 10 9 6 5 5 5 5 6 6 7 6 6 5 5 6 6 5 6 10 11 10 11 10 6 7 8 6 5 6 9 10 8 6 4 4 4 5 5
13 14 15 14 13 13 12 11 11 11 10 9 8 6 6 6 7 8 8 10 13 14 13 12 11 11 8 8 8 8 8 9 9 8 8 8 10 11 12 12 13 13 13 14 14 13 12 11 10 8 7 7 6 7 7 8 8 8 6 7 9 9 8 6 8 12 13 12 12 9 5 6 8 6 4 5 7 8 7 6 4 3 2 3 4
14 15 15 14 13 12 10 9 9 8 7 7 6 6 6 6 7 7 8 10 11 12 12 11 11 10 9 9 10 10 9 10 11 11 10 10 12 13 13 14 14 14 14 14 15 15 14 13 11 10 8 8 7 7 8 9 10 9 8 9 12 11 9 9 11 13 16 15 11 7 4 4 8 7 4 4 7 8 7 7 6 4 1 1 1
13 14 15 14 12 10 8 7 7 7 7 7 7 8 7 7 7 8 9 9 10 10 10 9 9 9 8 9 10 12 12 11 12 12 12 12 14 15 15 16 15 14 14 15 16 17 16 16 14 12 11 10 10 9 9 9 10 10 9 11 13 11 9 11 12 13 16 14 9 5 4 4 6 7 4 3 5 6 7 8 9 6 2 2 3
14 15 15 13 11 9 8 8 8 10 11 11 11 10 10 9 8 9 10 11 11 12 11 9 8 9 10 9 10 12 12 12 12 13 14 15 15 16 17 17 16 16 16 16 18 18 18 17 16 14 12 12 12 11 10 9 9 9 11 12 13 11 9 10 12 13 15 12 7 5 5 5 5 4 4 3 4 5 5 7 10 8 2 1 3
15 15 13 12 10 9 10 10 10 10 10 10 9 9 10 10 10 11 12 13 13 11 10 9 9 10 12 12 12 13 13 13 14 15 16 16 16 17 17 17 17 17 17 18 19 19 18 17 16 14 13 12 12 11 11 10 9 10 13 15 14 12 10 11 12 13 13 10 6 6 7 8 7 4 2 3 4 4 4 7 10 8 2 2 2
13 13 13 12 11 10 11 11 10 9 9 8 8 9 10 11 12 14 15 15 13 12 11 12 11 11 12 13 14 15 14 14 15 15 15 16 17 17 18 18 18 18 18 19 19 19 18 17 16 14 13 12 11 11 12 12 11 11 14 16 15 13 12 12 13 13 11 10 9 8 9 10 9 4 2 2 4 4 4 6 9 7 3 3 2
10 10 12 13 13 11 11 11 12 12 12 11 11 11 13 13 14 16 17 16 15 14 14 13 12 11 12 13 15 15 16 16 16 16 16 16 17 18 19 20 20 20 19 19 19 18 17 17 16 15 14 12 10 11 12 13 13 13 14 15 15 14 14 14 14 13 12 10 11 11 9 8 8 5 4 2 3 3 3 5 6 5 4 2 2
11 10 11 14 15 14 12 11 12 14 14 14 14 14 15 14 15 15 15 15 15 15 14 13 12 13 13 14 14 15 15 16 17 17 17 17 18 19 20 21 21 21 20 19 18 17 17 17 17 16 15 13 11 10 11 12 13 14 15 15 15 15 15 16 15 15 13 11 11 11 9 7 8 7 6 4 2 3 2 4 5 4 2 1 2
12 12 12 15 18 18 16 14 14 15 17 17 16 16 16 15 15 15 16 17 17 17 17 16 15 15 15 15 15 15 15 15 17 17 17 17 18 19 21 21 21 20 19 18 17 17 17 17 17 17 16 15 13 11 10 11 11 12 13 15 15 16 17 17 16 15 14 13 12 11 10 8 8 7 6 6 4 4 4 3 4 5 4 2 2
14 13 13 14 17 20 20 19 19 18 18 17 16 17 16 16 16 16 17 18 18 18 18 17 15 15 15 14 13 14 15 16 18 18 18 19 19 20 20 20 19 19 18 16 16 17 17 17 16 16 16 16 15 14 12 12 12 12 12 14 15 17 18 17 17 15 15 14 13 11 10 9 8 8 6 6 6 5 5 4 4 5 5 4 3
14 13 12 10 11 14 16 17 17 16 16 16 16 15 15 15 15 16 17 17 17 16 16 15 15 14 14 13 13 14 16 17 18 19 20 20 21 21 20 19 19 18 18 17 17 18 18 16 15 15 14 14 15 15 14 14 14 14 13 13 15 16 17 17 17 16 16 16 14 12 11 10 8 9 8 7 6 5 5 5 5 5 5 4 4
12 12 12 11 11 11 11 11 11 11 12 13 13 12 13 14 15 16 17 18 18 18 17 16 16 16 16 16 16 17 19 19 19 20 20 20 21 21 21 20 20 19 19 18 18 18 18 16 15 14 14 13 13 14 14 15 15 15 15 15 16 16 16 17 17 17 18 17 15 13 12 11 9 10 10 9 8 6 6 7 7 7 5 4 3
14 13 13 13 13 13 12 11 10 10 10 11 11 13 14 15 16 16 16 17 18 18 18 18 18 18 18 18 19 20 22 22 21 21 20 20 20 21 21 20 21 21 20 19 18 17 17 16 14 15 15 14 13 13 13 13 14 15 16 16 17 17 17 17 17 17 17 17 16 15 14 13 11 10 11 11 10 9 8 8 8 8 6 4 3
16 16 16 16 16 15 15 14 13 12 11 12 13 14 15 17 17 17 17 17 17 17 17 18 19 18 18 19 20 21 21 22 21 21 21 20 20 20 21 21 21 22 21 20 18 18 17 17 16 16 16 16 15 14 13 13 13 15 16 17 18 18 18 18 18 17 17 17 16 15 14 14 13 11 11 12 12 11 10 8 8 8 7 5 4
19 19 19 18 18 18 18 17 16 14 13 14 15 15 16 17 17 18 19 19 18 18 19 19 19 19 20 20 20 20 21 22 22 22 22 22 21 22 22 23 22 22 21 20 18 17 18 18 18 17 16 16 16 15 14 14 13 14 15 16 17 18 18 18 18 18 17 17 17 15 15 15 14 12 11 13 14 14 12 10 9 9 9 8 6
20 20 19 19 19 19 19 19 18 17 17 17 17 17 17 17 17 18 19 19 19 20 21 21 21 21 21 21 20 20 21 22 23 23 23 23 23 23 24 23 23 22 21 20 19 18 18 18 18 17 17 17 16 15 15 15 14 14 15 16 16 17 17 18 18 18 17 17 18 16 15 16 15 13 12 12 13 14 14 14 12 11 10 8 7
20 19 19 19 19 19 20 20 20 21 21 20 20 20 20 20 20 20 20 21 21 21 22 22 22 21 21 20 19 20 22 23 23 23 23 23 23 23 22 22 22 21 20 19 18 18 18 18 18 18 18 19 19 18 17 16 16 15 16 16 16 16 16 17 17 17 17 17 17 17 16 16 16 15 13 12 12 13 14 15 15 12 10 8 8
20 19 20 20 21 21 21 20 21 21 22 22 22 23 23 23 23 24 24 25 25 25 24 24 23 23 23 23 22 22 23 23 24 24 24 24 24 23 22 21 22 22 22 20 18 18 19 19 19 19 19 19 20 21 20 19 18 17 17 18 17 17 16 16 15 16 16 17 17 17 17 17 17 16 14 12 11 12 12 14 15 13 12 11 10
16 16 16 17 18 18 19 19 19 20 20 21 22 23 24 25 25 25 26 26 27 27 27 26 25 25 26 26 25 25 25 25 25 25 25 24 24 24 24 23 22 22 23 23 22 21 20 21 21 21 20 20 20 21 22 21 21 20 19 20 20 19 18 17 15 16 17 18 18 18 18 18 18 18 15 13 11 11 10 13 17 15 14 13 12
18 18 18 18 18 19 20 21 22 23 23 24 25 26 26 26 26 25 25 25 26 26 26 26 26 26 27 27 27 26 25 24 24 24 24 24 24 25 25 24 24 23 24 25 25 24 22 22 22 22 22 21 21 21 22 22 22 22 21 21 21 21 20 19 18 18 18 18 18 19 19 19 19 19 17 15 14 12 10 13 19 19 16 13 12
21 22 23 22 21 20 20 21 22 24 25 26 26 27 27 27 26 26 26 26 27 27 26 27 27 28 28 28 28 27 26 25 24 24 25 26 26 27 27 26 26 26 26 26 27 27 25 24 23 23 23 22 22 22 22 22 22 23 23 23 23 23 22 21 21 21 20 20 19 20 20 19 20 20 18 17 17 15 12 12 17 20 19 16 13
19 21 22 22 21 21 21 21 22 23 23 23 24 25 26 27 27 27 28 28 28 28 28 28 29 30 30 29 29 28 27 27 26 26 27 28 28 28 28 28 27 27 27 27 27 28 27 26 25 25 25 24 23 23 23 23 23 24 24 24 24 25 24 23 23 23 22 22 21 20 21 21 20 21 21 20 19 18 16 13 15 18 20 19 17
19 20 21 22 23 23 24 24 24 24 23 23 24 26 27 28 28 29 29 30 29 29 30 30 30 31 31 31 30 29 28 29 28 27 27 28 28 28 28 28 28 28 28 28 27 27 27 27 26 26 26 26 25 25 25 25 25 25 24 23 24 24 24 24 23 24 24 24 22 21 21 22 22 22 22 22 22 21 19 17 16 18 19 20 19
20 21 22 23 24 25 26 26 26 26 26 26 27 28 29 30 31 31 31 32 32 33 33 32 32 32 32 32 32 31 30 30 30 29 29 29 30 30 30 30 30 29 29 29 27 26 26 26 27 26 27 27 27 26 26 26 26 26 26 24 24 24 24 23 23 23 25 26 25 23 22 23 23 23 24 24 24 24 22 20 19 19 20 20 20
Wind_Direction
175 183 186 191 196 190 178 149 91 77 100 116 122 120 114 108 103 105 105 90 75 68 64 59 60 76 99 95 79 64 58 70 72 54 50 50 50 53 44 33 34 33 30 33 33 30 26 21 19 20 19 17 16 13 12 15 17 18 19 23 30 31 26 10 17 35 44 57 58 44 24 10 18 30 30 33 43 42 38 39 34 25 24 28 25
187 195 193 190 187 179 171 144 105 98 102 106 113 113 107 107 105 105 105 93 85 79 66 58 57 61 65 66 65 59 54 68 78 59 53 55 54 54 49 38 34 33 34 37 34 27 24 21 21 21 20 22 28 29 28 27 24 22 19 17 26 33 30 24 24 30 48 82 80 64 44 14 21 34 27 20 22 23 23 27 30 26 24 25 23
179 189 190 188 183 178 172 146 116 105 102 101 104 108 106 104 101 99 98 88 86 83 64 55 55 53 53 54 55 55 55 68 84 69 52 49 48 48 45 37 29 27 31 34 28 23 21 20 21 21 18 17 22 27 27 25 23 27 28 22 22 30 26 18 18 26 47 77 89 82 69 29 19 27 26 17 359 349 355 10 18 16 18 22 21
158 178 175 170 177 178 171 150 127 113 107 103 102 104 107 110 112 110 102 82 71 69 57 51 51 46 44 45 46 49 52 65 80 69 48 40 39 41 35 26 18 15 19 20 16 17 20 22 22 19 14 12 13 17 22 23 23 31 36 32 28 25 14 9 13 20 43 71 80 82 70 33 16 8 1 3 357 346 343 348 359 2 4 14 17
172 172 158 139 162 173 166 149 130 119 114 110 106 107 110 116 126 131 122 104 81 67 57 53 47 39 34 32 34 37 41 50 60 57 45 34 34 38 35 25 16 7 4 5 7 9 13 19 19 12 7 4 0 1 5 11 25 40 40 37 34 28 15 8 13 15 31 71 86 88 70 29 6 344 335 336 336 332 329 332 339 344 347 356 2
172 163 152 109 152 168 164 154 140 131 125 120 118 121 123 127 141 151 142 127 119 103 65 53 45 33 27 26 29 30 31 36 42 46 41 30 30 36 37 31 21 13 7 1 5 9 11 15 12 5 2 356 347 345 346 352 22 46 40 36 33 26 19 12 13 12 14 47 77 77 48 15 347 332 331 334 329 321 315 314 319 328 335 339 347
164 154 139 120 142 156 159 157 152 149 144 136 135 139 143 141 137 150 160 149 141 143 77 49 44 33 27 28 30 29 26 26 30 34 31 21 21 27 33 32 25 23 24 20 17 15 8 6 2 358 358 352 345 343 343 350 31 51 42 38 28 17 17 17 15 13 7 6 18 26 21 8 349 337 334 330 321 315 315 310 304 312 325 333 344
162 161 144 133 140 146 150 153 157 161 161 159 163 167 171 171 147 137 159 164 155 149 103 9 18 27 26 26 28 28 22 18 22 27 23 13 9 14 25 29 25 24 26 26 24 20 12 9 7 3 2 358 354 357 360 7 49 56 43 45 29 8 10 18 16 13 10 3 357 356 355 349 345 344 339 331 322 322 332 331 318 312 315 325 345
171 177 166 146 144 147 152 159 167 170 169 173 178 173 174 181 176 161 170 187 194 192 202 320 341 359 11 11 16 21 17 11 15 20 20 14 5 4 14 22 23 20 19 19 18 18 19 18 14 8 5 3 5 14 18 21 47 43 28 42 35 7 5 14 14 10 6 2 0 357 352 349 351 354 351 349 349 343 337 331 320 311 308 308 324
183 186 182 167 156 154 157 172 180 179 177 181 181 167 161 167 169 152 128 172 222 219 226 271 318 327 340 344 351 8 13 7 8 11 14 15 6 358 5 13 17 15 13 12 12 13 16 16 13 9 6 8 14 20 21 25 40 9 5 30 38 16 4 11 12 9 5 1 2 1 354 353 356 357 358 1 360 352 342 334 325 313 306 300 292
193 190 188 177 164 162 167 191 188 182 176 175 169 159 157 161 158 130 80 38 224 210 228 239 291 329 320 314 327 355 8 3 2 2 7 13 9 358 357 2 8 10 6 7 8 10 12 11 10 7 6 11 20 21 24 40 45 28 24 48 50 34 19 17 16 15 13 11 14 13 3 3 7 11 17 22 20 15 8 360 348 333 324 320 291
198 191 183 173 171 181 208 211 187 182 179 177 172 168 169 173 178 168 33 358 14 169 228 225 142 43 356 296 310 348 6 0 357 355 359 8 8 4 347 345 359 6 359 359 3 6 7 7 6 4 5 12 20 23 37 56 47 45 67 82 69 54 40 30 23 23 26 28 31 34 35 34 35 36 33 27 24 19 14 13 10 357 346 345 338
200 191 182 180 187 203 221 216 194 186 183 187 194 186 176 179 210 241 242 290 342 30 36 38 42 34 26 352 321 343 0 359 356 355 356 360 3 5 349 327 345 358 353 351 356 359 1 3 4 3 4 10 17 23 47 68 53 69 100 108 89 65 47 35 29 30 31 35 44 53 57 52 45 41 31 20 17 15 13 16 16 8 3 5 3
199 192 190 194 201 209 215 218 208 195 191 202 204 187 172 181 219 241 242 270 305 342 32 39 33 22 18 11 355 355 2 1 357 356 356 354 355 360 355 330 330 343 345 344 348 351 354 360 3 3 2 6 12 19 34 101 63 73 100 115 74 38 29 28 31 29 20 21 40 52 51 40 30 29 25 17 17 16 14 14 11 15 51 73 55
197 194 194 196 197 205 215 214 201 189 191 199 192 177 176 199 228 256 272 284 293 299 324 23 27 8 2 4 359 358 2 1 356 354 353 352 349 351 355 344 324 326 333 338 342 344 348 356 2 3 2 4 7 13 24 28 237 290 22 26 15 21 29 27 23 18 10 12 27 28 22 17 12 16 15 13 20 19 17 16 11 19 72 89 77
195 192 194 199 201 207 215 211 192 173 176 181 178 178 196 220 245 272 282 285 285 279 275 312 355 344 341 346 345 346 351 351 348 347 346 347 345 342 347 348 332 324 327 331 336 340 343 352 2 5 4 4 7 16 25 30 327 282 306 338 359 18 30 24 13 11 7 11 18 11 2 1 359 355 353 358 15 16 12 16 18 20 56 86 80
198 200 209 216 212 206 208 209 200 187 186 186 186 194 214 233 256 284 288 283 269 251 257 288 312 318 326 331 328 330 335 337 339 342 342 343 342 337 338 341 337 331 328 326 330 335 341 353 3 6 7 8 14 23 31 38 48 49 21 13 16 21 26 15 14 24 21 17 16 9 5 7 359 342 343 0 13 7 0 9 27 33 44 61 61
209 215 220 214 201 194 202 208 204 203 210 211 208 207 216 236 268 332 314 263 241 250 277 294 307 315 318 318 317 319 323 325 329 334 336 336 335 334 334 335 336 335 329 322 322 329 341 355 3 7 10 15 21 28 39 50 61 63 54 48 44 42 48 32 25 31 27 17 16 13 12 17 13 0 5 14 3 351 352 5 26 38 46 50 48
216 217 209 199 191 193 202 207 206 209 220 218 212 210 218 238 278 351 342 258 242 268 297 316 330 330 319 308 307 310 311 311 313 320 326 328 327 329 333 335 336 333 326 319 318 324 336 352 3 7 10 17 26 38 52 58 59 56 50 44 39 35 38 30 27 27 14 2 8 12 9 10 5 354 353 350 338 336 342 350 9 35 50 54 53
219 211 202 198 197 199 202 204 206 212 219 212 205 211 224 241 263 266 264 276 270 283 317 339 342 338 326 310 304 304 305 308 309 313 320 322 320 323 333 339 337 332 327 323 321 322 329 344 0 6 8 16 27 40 53 57 54 51 46 41 39 38 31 21 23 22 5 355 8 16 14 13 7 357 349 337 328 327 328 329 345 24 46 57 58
213 206 204 203 203 205 206 205 205 210 214 209 213 226 229 233 251 254 255 276 296 315 341 344 338 333 326 316 308 303 304 310 315 318 318 314 315 325 339 347 346 337 333 332 330 329 330 338 352 360 3 11 20 30 41 41 41 43 40 36 38 38 32 18 13 11 360 353 5 8 5 5 2 2 4 356 345 333 311 303 317 357 23 48 60
206 207 210 209 210 215 215 210 209 210 212 216 226 234 234 236 250 258 265 281 301 324 339 339 333 327 321 312 305 303 304 311 321 325 317 310 321 343 356 4 4 356 349 346 344 340 335 336 344 349 356 2 3 10 19 17 19 28 27 24 30 36 35 27 10 360 346 329 334 343 349 355 355 358 11 14 13 5 317 265 260 309 329 8 39
207 214 213 209 212 221 226 220 215 210 212 224 234 235 235 243 253 257 265 280 298 321 334 336 332 326 317 303 303 305 299 316 330 335 333 336 358 10 9 8 8 3 357 355 355 350 338 331 335 341 343 346 349 350 354 1 7 1 2 10 13 16 23 22 11 2 352 336 330 339 357 8 7 9 13 12 13 11 350 272 304 306 282 319 351
210 212 211 208 211 220 223 216 210 209 216 229 236 231 231 237 245 250 260 276 296 316 326 329 329 324 311 289 306 298 237 345 357 359 21 32 24 8 1 356 354 351 348 349 355 356 348 334 327 335 336 330 343 347 342 341 341 328 335 354 356 350 1 8 3 358 359 0 359 5 16 17 11 12 12 10 13 15 13 349 347 315 265 275 284
206 204 202 202 205 211 210 204 206 213 220 225 224 223 226 231 233 242 261 281 299 312 318 320 321 317 293 254 284 288 259 293 323 293 327 351 350 346 347 344 343 341 338 339 346 351 353 346 331 323 325 316 323 338 338 334 326 314 322 343 350 350 354 353 346 347 355 2 5 9 16 12 8 9 6 7 19 24 30 39 2 341 280 273 269
206 205 203 200 202 207 209 212 221 221 217 216 217 219 226 234 240 249 269 287 297 306 311 311 313 310 285 256 265 282 274 279 278 267 281 304 321 328 329 331 335 336 333 332 335 339 346 349 338 315 297 292 298 307 322 326 315 310 328 343 340 335 336 333 334 340 348 354 351 351 357 350 348 357 355 1 26 36 40 38 10 9 37 30 278
211 212 210 204 204 211 216 223 228 222 215 215 219 223 227 240 255 266 278 289 294 299 303 304 310 315 297 265 260 272 271 268 266 262 268 290 311 320 321 324 328 328 328 327 326 329 335 340 338 319 287 278 287 291 299 304 298 304 327 336 323 322 327 325 327 336 343 342 336 336 343 336 334 350 4 6 24 36 40 40 28 23 61 84 98
220 217 213 209 210 216 220 221 219 215 213 215 220 228 238 253 275 290 294 294 291 290 293 300 311 318 303 270 262 269 267 266 272 273 275 290 307 313 316 319 319 319 321 320 319 321 325 328 332 321 294 278 279 281 284 287 291 299 312 321 323 326 328 327 329 335 337 332 321 317 328 344 350 7 31 17 16 25 32 37 37 29 46 95 101
225 214 208 209 213 214 216 215 213 212 216 223 232 247 257 268 289 305 306 297 290 288 291 299 309 311 298 276 271 273 272 276 284 288 288 294 303 308 311 313 312 312 312 312 312 314 316 318 322 318 302 283 275 279 280 280 287 292 295 312 326 328 325 329 334 333 330 324 311 299 304 346 1 8 18 13 14 19 22 18 16 18 6 311 7
221 206 201 204 206 207 211 216 226 241 253 259 266 272 275 279 293 306 307 297 288 287 289 293 298 302 298 288 280 280 283 286 289 291 293 297 302 306 307 307 307 307 306 306 307 308 311 313 315 315 308 292 278 277 279 282 288 289 287 305 321 320 317 329 333 329 328 323 304 283 288 315 346 357 356 359 14 18 14 7 3 2 340 291 313
203 196 197 200 202 213 231 246 263 276 278 278 278 278 278 281 289 301 308 303 291 283 282 283 287 292 295 294 286 284 288 291 289 288 290 293 296 299 301 303 303 304 304 304 305 305 306 308 309 308 305 295 282 274 275 285 294 289 284 297 309 307 312 330 330 327 333 332 301 270 282 293 313 337 337 334 356 2 358 357 357 358 4 279 324
194 193 198 205 214 235 255 268 279 282 276 271 270 272 276 281 287 296 304 305 296 281 272 273 278 282 286 288 287 286 289 290 287 285 285 287 289 291 295 297 298 299 299 300 302 304 304 303 302 299 295 292 284 272 268 277 289 287 284 292 300 300 309 325 325 323 335 341 316 284 286 293 297 300 306 325 347 355 353 350 348 354 35 125 3
203 205 208 214 228 249 261 266 270 273 273 270 267 272 279 284 289 295 298 299 292 276 266 269 274 277 282 286 287 288 287 285 283 282 282 284 286 287 290 293 294 294 294 296 300 304 306 304 300 293 287 288 287 275 265 268 276 280 282 288 293 296 303 312 316 318 326 337 336 324 307 298 295 277 240 313 342 348 360 359 354 5 76 118 33
221 228 226 223 230 243 254 260 263 269 278 280 278 280 284 285 287 292 294 294 290 281 273 270 270 277 286 291 291 291 288 284 281 282 282 283 286 287 288 290 291 291 292 295 297 300 302 303 302 292 280 278 283 278 269 266 267 270 278 284 288 290 294 300 307 311 313 322 336 342 327 299 286 265 230 244 327 342 10 15 9 27 78 85 25
231 243 240 231 231 236 243 252 259 265 272 277 280 283 284 284 285 287 291 293 292 287 281 272 265 270 280 286 288 289 287 282 278 277 279 281 284 286 287 289 291 292 293 294 292 292 295 299 301 296 282 272 272 274 271 267 266 269 274 280 282 283 287 293 300 304 305 309 325 339 333 297 274 262 238 225 271 321 349 10 3 8 38 30 23
232 240 240 234 234 237 240 246 255 262 268 274 279 283 284 283 282 283 287 290 290 289 288 283 277 275 277 280 282 285 285 283 279 277 279 281 281 282 285 289 293 294 293 290 286 287 291 294 297 298 289 276 268 268 269 270 271 273 275 277 278 279 282 287 294 297 299 302 313 330 330 300 269 252 232 216 229 279 298 318 330 326 318 308 328
239 247 248 241 237 239 242 248 254 260 266 272 279 284 285 284 281 281 283 287 288 289 291 291 290 286 282 282 283 284 286 287 285 284 284 282 281 281 285 289 292 292 289 285 284 287 290 291 293 295 292 283 273 267 266 268 272 276 278 277 278 279 280 283 289 292 292 295 303 319 325 303 266 245 236 224 222 254 286 296 305 309 308 315 327
247 253 257 257 251 248 249 254 258 262 269 276 281 285 287 288 287 285 285 286 288 291 293 294 294 291 289 292 294 292 289 289 288 287 286 284 282 283 287 290 291 289 285 283 284 286 288 288 289 290 288 284 277 268 264 265 268 273 278 277 278 282 282 280 283 284 284 288 295 304 314 306 271 242 240 238 229 241 273 281 287 298 299 312 335
251 255 259 263 266 265 264 266 269 272 276 280 284 287 290 293 293 292 289 287 286 287 288 290 292 292 293 297 298 295 292 289 288 288 287 285 283 283 285 289 290 290 288 286 285 285 285 284 286 287 284 282 281 275 269 266 266 271 276 276 275 279 280 278 278 278 278 284 291 292 297 302 282 247 239 242 243 253 268 268 270 279 279 273 303
253 259 263 264 265 269 271 271 274 277 281 287 291 292 293 293 294 296 296 293 290 289 287 286 287 289 293 296 296 294 293 290 288 286 285 285 283 282 283 287 289 291 291 289 285 285 284 282 285 290 290 288 288 285 280 276 272 271 274 273 271 273 277 278 278 276 275 279 286 285 284 289 283 262 250 251 252 252 254 252 253 257 256 244 243
256 263 268 267 267 269 271 272 275 280 287 291 292 292 291 291 292 293 292 292 294 295 292 290 290 292 295 295 295 294 292 290 289 286 282 281 281 279 280 285 287 288 289 287 283 281 282 283 285 290 290 288 288 286 285 285 282 275 272 270 269 271 274 275 277 277 274 275 277 277 275 276 277 272 266 265 262 254 246 243 244 239 229 224 231
258 262 266 268 268 269 270 273 277 283 289 291 291 293 295 295 293 291 290 289 291 293 293 292 294 295 295 295 294 293 290 287 286 285 282 280 278 276 278 282 285 285 285 282 277 276 279 283 285 284 282 280 281 282 283 288 289 283 275 270 268 270 272 275 276 276 273 270 270 271 269 270 273 273 269 269 269 263 252 242 234 228 223 222 228
253 256 261 266 268 269 272 275 278 281 284 288 290 293 296 296 295 295 295 293 291 291 291 292 294 296 296 296 295 292 288 284 284 286 287 284 280 277 276 279 282 283 281 277 273 273 276 280 281 280 277 276 277 278 281 285 288 285 278 273 271 271 272 273 274 273 270 267 267 267 266 266 269 272 273 273 274 271 260 243 228 224 229 233 233
249 252 257 264 267 269 272 276 278 280 283 286 288 289 291 292 293 295 295 294 293 291 290 291 294 296 296 296 293 288 285 284 285 287 288 286 284 281 279 279 281 281 278 274 270 267 268 272 279 281 281 279 279 279 278 279 280 280 279 278 276 275 274 273 274 274 273 269 266 265 265 265 264 267 272 276 280 279 265 243 227 224 229 231 230
251 255 260 266 269 270 272 275 277 278 280 282 285 287 290 291 291 292 293 293 292 290 289 290 293 295 295 294 291 287 285 286 288 289 288 289 288 284 279 278 278 276 275 274 273 269 266 269 275 280 283 283 282 280 277 275 274 276 278 278 278 279 281 282 280 277 274 271 266 264 264 263 261 263 265 268 279 287 269 239 226 226 229 227 231
255 261 265 266 267 268 270 275 278 279 280 282 285 289 292 292 291 292 293 293 292 290 288 287 290 293 295 295 292 288 285 285 286 286 287 289 288 283 277 275 274 272 270 271 272 272 270 270 272 276 280 281 280 279 277 275 273 273 274 274 276 280 284 285 279 271 269 269 266 262 261 260 259 260 258 254 264 281 269 234 221 221 226 229 237
258 264 266 266 268 272 275 279 281 283 283 284 286 288 290 290 290 290 290 291 292 290 286 286 288 292 295 295 293 290 287 285 285 285 284 285 286 283 278 274 272 270 269 268 269 270 270 269 271 274 277 278 278 277 277 276 275 272 270 269 271 276 280 281 275 267 265 267 266 261 257 256 255 255 253 246 246 259 261 234 220 219 225 233 239
256 261 263 265 270 275 280 284 286 285 284 282 282 284 286 287 288 287 287 288 289 288 286 286 287 290 292 293 292 291 289 286 285 286 286 287 288 286 281 276 273 271 270 269 267 267 267 268 269 271 274 277 278 277 276 276 275 273 271 269 270 272 275 276 273 268 263 262 263 260 256 253 251 251 249 245 241 246 252 241 226 224 228 230 231
260 262 263 265 267 272 279 286 288 288 286 282 280 282 285 286 287 288 288 289 289 289 288 287 287 287 288 288 288 289 287 283 282 284 287 289 290 288 283 279 275 272 270 270 267 265 264 266 268 269 271 275 277 278 277 276 275 273 272 273 274 275 274 271 270 268 263 259 258 259 256 253 250 248 247 246 244 244 248 245 232 226 227 228 230
266 267 269 271 271 273 277 281 283 285 286 286 285 286 288 289 289 290 289 289 289 289 289 288 286 285 285 284 284 284 283 282 282 285 288 289 288 287 284 282 277 271 268 268 269 268 266 266 268 270 271 274 276 277 277 276 275 274 273 273 274 275 273 269 266 266 263 258 256 257 256 253 249 245 244 244 244 244 247 246 235 225 224 228 234
270 273 276 278 278 278 279 280 281 283 286 289 289 290 290 291 292 293 292 290 290 290 291 290 288 287 286 286 285 286 284 282 281 282 283 284 285 285 284 283 278 271 265 264 267 269 269 268 269 270 271 273 275 276 277 276 274 272 272 272 271 271 271 268 264 263 262 260 258 257 255 252 248 244 241 241 242 244 247 247 239 229 226 229 236